MCA2360 KPDX-KGEG

Flight info

Callsign MCA2360
Flight time 0h 55m
Altitude 31000
Route LAVAA7 SUNED ZOOMR ZOOMR2
Aircraft B738/M-SDE3GHIRWX/LB1

Departure

Time 2026-04-20 00:42
Airport Portland International Airport (KPDX)

Arrival

Time 2026-04-20 01:38
Airport Spokane International Airport (KGEG)
Time Latitude Longitude Altitude Speed Heading
2026-04-19 23:46 45.58939 -122.59899 27 ft 0 kts 40°
2026-04-20 00:24 45.58935 -122.59905 27 ft 4 kts 39°
2026-04-20 00:24 45.58912 -122.59927 27 ft 4 kts 23°
2026-04-20 00:24 45.58886 -122.59936 27 ft 3 kts 358°
2026-04-20 00:24 45.58862 -122.59926 27 ft 4 kts 316°
2026-04-20 00:25 45.58855 -122.59914 27 ft 1 kts 299°
2026-04-20 00:33 45.58856 -122.59915 27 ft 1 kts 299°
2026-04-20 00:34 45.58860 -122.59925 27 ft 1 kts 299°
2026-04-20 00:34 45.58863 -122.59934 27 ft 1 kts 299°
2026-04-20 00:34 45.58865 -122.59939 27 ft 0 kts 299°
2026-04-20 00:34 45.58866 -122.59941 27 ft 0 kts 299°
2026-04-20 00:36 45.58869 -122.59948 27 ft 3 kts 299°
2026-04-20 00:36 45.58888 -122.59998 27 ft 7 kts 299°
2026-04-20 00:36 45.58913 -122.60062 27 ft 9 kts 299°
2026-04-20 00:36 45.58951 -122.60163 27 ft 14 kts 294°
2026-04-20 00:37 45.59002 -122.60284 27 ft 14 kts 313°
2026-04-20 00:37 45.59084 -122.60272 27 ft 13 kts 41°
2026-04-20 00:37 45.59138 -122.60188 27 ft 11 kts 47°
2026-04-20 00:37 45.59189 -122.60114 27 ft 11 kts 45°
2026-04-20 00:38 45.59249 -122.60030 27 ft 13 kts 45°
2026-04-20 00:38 45.59289 -122.59972 27 ft 3 kts 46°
2026-04-20 00:38 45.59304 -122.59950 27 ft 4 kts 46°
2026-04-20 00:38 45.59322 -122.59923 27 ft 4 kts 46°
2026-04-20 00:39 45.59350 -122.59890 27 ft 10 kts 29°
2026-04-20 00:39 45.59423 -122.59944 27 ft 13 kts 299°
2026-04-20 00:39 45.59458 -122.60039 26 ft 0 kts 298°
2026-04-20 00:39 45.59465 -122.60055 27 ft 5 kts 298°
2026-04-20 00:40 45.59484 -122.60106 27 ft 6 kts 298°
2026-04-20 00:40 45.59520 -122.60163 28 ft 10 kts 340°
2026-04-20 00:40 45.59563 -122.60112 29 ft 9 kts 75°
2026-04-20 00:40 45.59570 -122.60077 29 ft 0 kts 71°
2026-04-20 00:41 45.59572 -122.60069 30 ft 5 kts 65°
2026-04-20 00:41 45.59601 -122.60023 30 ft 6 kts 43°
2026-04-20 00:41 45.59625 -122.59970 29 ft 7 kts 74°
2026-04-20 00:41 45.59607 -122.59881 29 ft 15 kts 117°
2026-04-20 00:42 45.59466 -122.59517 29 ft 78 kts 119°
2026-04-20 00:42 45.59089 -122.58550 30 ft 143 kts 119°
2026-04-20 00:42 45.58507 -122.57089 157 ft 187 kts 118°
2026-04-20 00:42 45.57877 -122.55441 1049 ft 188 kts 118°
2026-04-20 00:43 45.57278 -122.53785 1962 ft 190 kts 111°
2026-04-20 00:43 45.56985 -122.51974 2890 ft 183 kts 92°
2026-04-20 00:43 45.56938 -122.50774 3580 ft 176 kts 91°
2026-04-20 00:43 45.56861 -122.48936 4121 ft 197 kts 92°
2026-04-20 00:44 45.56742 -122.46899 4532 ft 217 kts 93°
2026-04-20 00:44 45.56509 -122.44617 4648 ft 246 kts 102°
2026-04-20 00:44 45.56037 -122.42177 5010 ft 264 kts 105°
2026-04-20 00:44 45.55510 -122.39538 5428 ft 284 kts 104°
2026-04-20 00:45 45.54971 -122.36800 6373 ft 283 kts 105°
2026-04-20 00:45 45.54594 -122.34065 6778 ft 281 kts 89°
2026-04-20 00:45 45.55056 -122.31383 6994 ft 283 kts 64°
2026-04-20 00:45 45.56252 -122.29153 7261 ft 284 kts 49°
2026-04-20 00:46 45.57565 -122.27156 8001 ft 288 kts 49°
2026-04-20 00:46 45.58948 -122.25068 8892 ft 292 kts 49°
2026-04-20 00:46 45.60350 -122.22941 9671 ft 298 kts 50°
2026-04-20 00:46 45.61782 -122.20754 10322 ft 306 kts 50°
2026-04-20 00:47 45.63295 -122.18427 10538 ft 333 kts 50°
2026-04-20 00:47 45.64883 -122.15870 10702 ft 355 kts 57°
2026-04-20 00:47 45.66076 -122.12692 10914 ft 372 kts 69°
2026-04-20 00:47 45.67139 -122.09271 11460 ft 380 kts 69°
2026-04-20 00:48 45.68211 -122.05801 12180 ft 384 kts 69°
2026-04-20 00:48 45.69306 -122.02302 12959 ft 386 kts 69°
2026-04-20 00:48 45.70424 -121.98781 13674 ft 392 kts 69°
2026-04-20 00:48 45.71566 -121.95215 14257 ft 397 kts 68°
2026-04-20 00:49 45.72726 -121.91608 14969 ft 399 kts 68°
2026-04-20 00:49 45.73888 -121.87989 15627 ft 402 kts 68°
2026-04-20 00:49 45.75058 -121.84318 16220 ft 407 kts 69°
2026-04-20 00:49 45.76197 -121.80596 16840 ft 411 kts 69°
2026-04-20 00:50 45.77328 -121.76816 17437 ft 415 kts 70°
2026-04-20 00:50 45.78460 -121.72995 18014 ft 419 kts 70°
2026-04-20 00:50 45.79575 -121.69227 18504 ft 424 kts 70°
2026-04-20 00:50 45.80731 -121.65323 19023 ft 427 kts 70°
2026-04-20 00:51 45.81893 -121.61401 19613 ft 428 kts 69°
2026-04-20 00:51 45.83063 -121.57458 20099 ft 432 kts 69°
2026-04-20 00:51 45.84247 -121.53465 20566 ft 437 kts 69°
2026-04-20 00:51 45.85439 -121.49442 21055 ft 440 kts 69°
2026-04-20 00:52 45.86638 -121.45390 21531 ft 443 kts 69°
2026-04-20 00:52 45.87847 -121.41300 21988 ft 446 kts 69°
2026-04-20 00:52 45.89062 -121.37179 22438 ft 450 kts 69°
2026-04-20 00:52 45.90285 -121.33028 22878 ft 454 kts 69°
2026-04-20 00:53 45.91519 -121.28831 23302 ft 457 kts 69°
2026-04-20 00:53 45.92757 -121.24611 23697 ft 460 kts 69°
2026-04-20 00:53 45.94001 -121.20367 24065 ft 462 kts 69°
2026-04-20 00:53 45.95247 -121.16107 24462 ft 464 kts 69°
2026-04-20 00:54 45.96499 -121.11821 24815 ft 466 kts 69°
2026-04-20 00:54 45.97756 -121.07511 25155 ft 469 kts 69°
2026-04-20 00:54 45.99016 -121.03179 25502 ft 471 kts 69°
2026-04-20 00:54 46.00284 -120.98814 25843 ft 473 kts 69°
2026-04-20 00:55 46.01554 -120.94435 26154 ft 476 kts 69°
2026-04-20 00:55 46.02829 -120.90029 26471 ft 478 kts 69°
2026-04-20 00:55 46.04111 -120.85589 26789 ft 480 kts 69°
2026-04-20 00:55 46.05408 -120.81094 27095 ft 482 kts 69°
2026-04-20 00:56 46.06694 -120.76624 27393 ft 484 kts 70°
2026-04-20 00:56 46.07983 -120.72137 27681 ft 486 kts 70°
2026-04-20 00:56 46.09277 -120.67624 27965 ft 488 kts 70°
2026-04-20 00:56 46.10572 -120.63101 28315 ft 489 kts 70°
2026-04-20 00:57 46.11867 -120.58572 28749 ft 487 kts 70°
2026-04-20 00:57 46.13153 -120.54065 29199 ft 486 kts 70°
2026-04-20 00:57 46.14434 -120.49567 29610 ft 485 kts 70°
2026-04-20 00:57 46.15714 -120.45061 29972 ft 485 kts 70°
2026-04-20 00:58 46.16989 -120.40565 30301 ft 485 kts 70°
2026-04-20 00:58 46.18264 -120.36061 30657 ft 483 kts 70°
2026-04-20 00:58 46.19532 -120.31572 30936 ft 484 kts 70°
2026-04-20 00:59 46.22084 -120.22514 30931 ft 488 kts 70°
2026-04-20 00:59 46.24623 -120.13473 30925 ft 483 kts 70°
2026-04-20 01:00 46.27137 -120.04486 30925 ft 482 kts 70°
2026-04-20 01:00 46.29878 -119.95638 30899 ft 486 kts 56°
2026-04-20 01:01 46.34517 -119.88513 30913 ft 488 kts 44°
2026-04-20 01:01 46.39448 -119.81728 30904 ft 489 kts 44°
2026-04-20 01:02 46.44358 -119.74884 30897 ft 490 kts 45°
2026-04-20 01:02 46.49229 -119.67964 30894 ft 490 kts 45°
2026-04-20 01:03 46.54081 -119.61010 30906 ft 491 kts 45°
2026-04-20 01:03 46.58937 -119.54030 30905 ft 491 kts 45°
2026-04-20 01:04 46.63797 -119.47031 30903 ft 492 kts 45°
2026-04-20 01:04 46.68658 -119.40015 30910 ft 492 kts 45°
2026-04-20 01:05 46.73514 -119.32988 30904 ft 492 kts 45°
2026-04-20 01:05 46.78374 -119.25937 30906 ft 492 kts 45°
2026-04-20 01:05 46.80802 -119.22406 30623 ft 496 kts 45°
2026-04-20 01:06 46.83254 -119.18835 29906 ft 497 kts 45°
2026-04-20 01:06 46.85742 -119.15207 29064 ft 505 kts 45°
2026-04-20 01:06 46.88230 -119.11572 28441 ft 515 kts 45°
2026-04-20 01:07 46.93190 -119.04316 28299 ft 503 kts 46°
2026-04-20 01:07 46.95645 -119.00719 28070 ft 497 kts 46°
2026-04-20 01:07 46.98076 -118.97150 27717 ft 494 kts 46°
2026-04-20 01:07 47.00497 -118.93591 27242 ft 494 kts 46°
2026-04-20 01:08 47.02914 -118.90033 26853 ft 492 kts 46°
2026-04-20 01:08 47.05322 -118.86483 26529 ft 489 kts 46°
2026-04-20 01:08 47.07709 -118.82959 26230 ft 486 kts 46°
2026-04-20 01:08 47.10081 -118.79453 25920 ft 483 kts 46°
2026-04-20 01:09 47.12442 -118.75959 25625 ft 481 kts 46°
2026-04-20 01:09 47.14782 -118.72491 25572 ft 473 kts 46°
2026-04-20 01:09 47.17084 -118.69075 25509 ft 467 kts 46°
2026-04-20 01:09 47.19354 -118.65702 25397 ft 463 kts 46°
2026-04-20 01:10 47.21644 -118.62294 25194 ft 461 kts 46°
2026-04-20 01:10 47.26107 -118.55639 24879 ft 456 kts 46°
2026-04-20 01:10 47.28342 -118.52302 24852 ft 451 kts 46°
2026-04-20 01:11 47.30542 -118.49012 24821 ft 447 kts 46°
2026-04-20 01:11 47.32714 -118.45760 24800 ft 443 kts 46°
2026-04-20 01:11 47.34860 -118.42541 24764 ft 435 kts 46°
2026-04-20 01:11 47.36929 -118.39437 24654 ft 414 kts 46°
2026-04-20 01:12 47.38902 -118.36474 24535 ft 396 kts 46°
2026-04-20 01:12 47.40766 -118.33671 24441 ft 379 kts 46°
2026-04-20 01:12 47.42428 -118.30788 24334 ft 358 kts 61°
2026-04-20 01:12 47.43387 -118.27554 24256 ft 332 kts 75°
2026-04-20 01:13 47.44053 -118.24373 24091 ft 316 kts 77°
2026-04-20 01:13 47.44656 -118.21308 23956 ft 299 kts 77°
2026-04-20 01:13 47.45219 -118.18435 23613 ft 293 kts 77°
2026-04-20 01:13 47.45790 -118.15548 23053 ft 292 kts 77°
2026-04-20 01:14 47.46366 -118.12674 22493 ft 291 kts 77°
2026-04-20 01:14 47.46942 -118.09822 21979 ft 289 kts 77°
2026-04-20 01:14 47.47518 -118.06986 21487 ft 287 kts 76°
2026-04-20 01:14 47.48090 -118.04174 20997 ft 285 kts 76°
2026-04-20 01:15 47.48408 -118.02617 20715 ft 284 kts 76°
2026-04-20 01:15 47.48975 -117.99830 20240 ft 282 kts 76°
2026-04-20 01:15 47.49538 -117.97064 19772 ft 280 kts 76°
2026-04-20 01:16 47.50098 -117.94308 19300 ft 279 kts 76°
2026-04-20 01:16 47.50445 -117.91518 18828 ft 274 kts 90°
2026-04-20 01:16 47.50506 -117.88720 18392 ft 271 kts 93°
2026-04-20 01:16 47.50512 -117.86041 17911 ft 270 kts 93°
2026-04-20 01:17 47.50519 -117.83276 17431 ft 268 kts 93°
2026-04-20 01:17 47.50536 -117.80534 16950 ft 266 kts 92°
2026-04-20 01:17 47.50562 -117.77809 16484 ft 264 kts 92°
2026-04-20 01:17 47.50593 -117.75100 16027 ft 262 kts 92°
2026-04-20 01:18 47.50628 -117.72437 15734 ft 252 kts 92°
2026-04-20 01:18 47.50665 -117.69932 15611 ft 236 kts 92°
2026-04-20 01:18 47.50688 -117.68306 15359 ft 233 kts 92°
2026-04-20 01:18 47.50721 -117.65909 14910 ft 233 kts 92°
2026-04-20 01:19 47.50753 -117.63514 14490 ft 232 kts 92°
2026-04-20 01:19 47.50785 -117.61135 14095 ft 231 kts 91°
2026-04-20 01:19 47.50814 -117.58772 13681 ft 229 kts 91°
2026-04-20 01:19 47.50837 -117.56424 13263 ft 227 kts 91°
2026-04-20 01:20 47.50855 -117.54102 12854 ft 225 kts 91°
2026-04-20 01:20 47.50868 -117.51801 12446 ft 222 kts 92°
2026-04-20 01:20 47.50875 -117.49523 12038 ft 220 kts 91°
2026-04-20 01:20 47.50879 -117.47271 11648 ft 218 kts 92°
2026-04-20 01:21 47.50878 -117.45037 11260 ft 216 kts 91°
2026-04-20 01:21 47.50872 -117.42828 10900 ft 212 kts 92°
2026-04-20 01:21 47.50863 -117.40716 10656 ft 201 kts 92°
2026-04-20 01:21 47.50849 -117.38653 10240 ft 200 kts 91°
2026-04-20 01:22 47.50829 -117.36608 9858 ft 198 kts 92°
2026-04-20 01:22 47.50806 -117.34583 9412 ft 195 kts 92°
2026-04-20 01:22 47.50783 -117.32587 9000 ft 194 kts 92°
2026-04-20 01:22 47.50765 -117.30607 8622 ft 191 kts 92°
2026-04-20 01:23 47.50748 -117.28652 8235 ft 190 kts 92°
2026-04-20 01:23 47.50735 -117.26713 7872 ft 187 kts 92°
2026-04-20 01:23 47.50725 -117.24793 7497 ft 186 kts 92°
2026-04-20 01:23 47.50954 -117.22934 7104 ft 186 kts 65°
2026-04-20 01:24 47.51790 -117.21504 6717 ft 186 kts 33°
2026-04-20 01:24 47.53005 -117.20907 6353 ft 185 kts
2026-04-20 01:24 47.54279 -117.20698 5968 ft 184 kts
2026-04-20 01:24 47.55535 -117.20487 5686 ft 178 kts
2026-04-20 01:25 47.56743 -117.20284 5687 ft 178 kts
2026-04-20 01:25 47.57998 -117.20247 5682 ft 183 kts 347°
2026-04-20 01:25 47.59122 -117.21100 5610 ft 185 kts 316°
2026-04-20 01:25 47.59888 -117.22608 5475 ft 182 kts 303°
2026-04-20 01:26 47.60585 -117.24163 5338 ft 181 kts 303°
2026-04-20 01:26 47.61223 -117.25780 5225 ft 181 kts 294°
2026-04-20 01:26 47.61621 -117.27542 5154 ft 181 kts 283°
2026-04-20 01:26 47.61828 -117.29383 5071 ft 180 kts 276°
2026-04-20 01:27 47.61907 -117.31222 5041 ft 179 kts 269°
2026-04-20 01:27 47.61896 -117.33075 5019 ft 181 kts 268°
2026-04-20 01:27 47.61839 -117.34965 4854 ft 188 kts 266°
2026-04-20 01:27 47.61795 -117.36839 4658 ft 183 kts 268°
2026-04-20 01:28 47.61770 -117.38674 4436 ft 170 kts 269°
2026-04-20 01:28 47.61754 -117.40409 4114 ft 169 kts 269°
2026-04-20 01:28 47.61742 -117.42162 3728 ft 172 kts 270°
2026-04-20 01:28 47.61696 -117.43920 3423 ft 168 kts 267°
2026-04-20 01:29 47.61649 -117.45600 3192 ft 160 kts 269°
2026-04-20 01:29 47.61641 -117.47239 2985 ft 159 kts 272°
2026-04-20 01:29 47.61665 -117.48880 2788 ft 159 kts 273°
2026-04-20 01:29 47.61664 -117.50526 2608 ft 159 kts 272°
2026-04-20 01:30 47.61674 -117.52155 2423 ft 154 kts 274°
2026-04-20 01:30 47.61687 -117.53684 2407 ft 158 kts 274°
2026-04-20 01:30 47.61720 -117.55466 2869 ft 180 kts 272°
2026-04-20 01:30 47.61719 -117.57358 3602 ft 189 kts 269°
2026-04-20 01:31 47.61565 -117.59250 4319 ft 181 kts 250°
2026-04-20 01:31 47.60872 -117.60909 4558 ft 196 kts 222°
2026-04-20 01:31 47.59688 -117.61845 4559 ft 196 kts 187°
2026-04-20 01:31 47.58325 -117.61809 4586 ft 195 kts 171°
2026-04-20 01:32 47.57021 -117.61385 4713 ft 190 kts 159°
2026-04-20 01:32 47.55927 -117.60323 4733 ft 192 kts 129°
2026-04-20 01:32 47.55391 -117.58536 4698 ft 195 kts 96°
2026-04-20 01:32 47.55412 -117.56542 4694 ft 192 kts 87°
2026-04-20 01:33 47.55405 -117.54590 4651 ft 188 kts 92°
2026-04-20 01:33 47.55390 -117.52669 4617 ft 185 kts 90°
2026-04-20 01:33 47.55422 -117.50770 4536 ft 185 kts 88°
2026-04-20 01:33 47.55484 -117.48869 4443 ft 182 kts 87°
2026-04-20 01:34 47.55564 -117.47054 4344 ft 168 kts 85°
2026-04-20 01:34 47.55720 -117.45419 4259 ft 156 kts 81°
2026-04-20 01:34 47.55926 -117.43812 4056 ft 168 kts 73°
2026-04-20 01:34 47.56513 -117.42332 4097 ft 167 kts 45°
2026-04-20 01:35 47.57512 -117.41443 4005 ft 170 kts 18°
2026-04-20 01:35 47.58690 -117.41186 3969 ft 174 kts
2026-04-20 01:35 47.59921 -117.41188 3912 ft 179 kts
2026-04-20 01:35 47.61164 -117.41338 3902 ft 180 kts 348°
2026-04-20 01:36 47.62264 -117.42211 3783 ft 184 kts 311°
2026-04-20 01:36 47.62682 -117.43846 3787 ft 161 kts 264°
2026-04-20 01:36 47.62325 -117.45369 3434 ft 154 kts 244°
2026-04-20 01:36 47.61840 -117.46755 3163 ft 149 kts 244°
2026-04-20 01:37 47.61588 -117.48202 2873 ft 147 kts 272°
2026-04-20 01:37 47.61674 -117.49741 2732 ft 151 kts 275°
2026-04-20 01:37 47.61672 -117.51253 2505 ft 145 kts 269°
2026-04-20 01:37 47.61683 -117.52703 2374 ft 127 kts 271°
2026-04-20 01:38 47.61694 -117.53689 2374 ft 67 kts 272°
2026-04-20 01:38 47.61692 -117.54289 2375 ft 55 kts 271°
2026-04-20 01:38 47.61692 -117.54785 2372 ft 44 kts 269°
2026-04-20 01:38 47.61694 -117.55158 2372 ft 21 kts 268°
2026-04-20 01:39 47.61743 -117.55309 2373 ft 18 kts 349°
2026-04-20 01:39 47.61824 -117.55269 2373 ft 11 kts 73°
2026-04-20 01:39 47.61821 -117.55156 2373 ft 11 kts 89°
2026-04-20 01:39 47.61820 -117.55035 2373 ft 13 kts 91°
2026-04-20 01:40 47.61820 -117.54855 2373 ft 18 kts 89°
2026-04-20 01:40 47.61817 -117.54677 2373 ft 17 kts 91°
2026-04-20 01:40 47.61817 -117.54507 2374 ft 16 kts 89°
2026-04-20 01:40 47.61817 -117.54342 2374 ft 16 kts 90°
2026-04-20 01:41 47.61828 -117.54187 2374 ft 15 kts 63°
2026-04-20 01:41 47.61898 -117.54076 2374 ft 14 kts 44°
2026-04-20 01:41 47.61967 -117.53972 2376 ft 14 kts 45°
2026-04-20 01:41 47.62032 -117.53873 2378 ft 13 kts 45°
2026-04-20 01:42 47.62095 -117.53778 2376 ft 13 kts 45°
2026-04-20 01:42 47.62157 -117.53686 2374 ft 12 kts 45°
2026-04-20 01:42 47.62218 -117.53597 2374 ft 12 kts 45°
2026-04-20 01:42 47.62264 -117.53540 2377 ft 0 kts 23°
2026-04-20 01:43 47.62268 -117.53538 2375 ft 3 kts 18°
2026-04-20 01:43 47.62310 -117.53537 2374 ft 8 kts 359°
2026-04-20 01:43 47.62363 -117.53516 2374 ft 9 kts 32°
2026-04-20 01:43 47.62416 -117.53440 2374 ft 12 kts 45°
2026-04-20 01:44 47.62467 -117.53369 2376 ft 7 kts 27°
2026-04-20 01:44 47.62509 -117.53387 2377 ft 5 kts 321°
2026-04-20 01:44 47.62524 -117.53410 2374 ft 2 kts 316°
2026-04-20 01:44 47.62526 -117.53411 2375 ft 0 kts 316°